User: anonymous   Login
Location: Niedergestelen
(46.3129°N, 7.7822°E)
Time: 09:14:52
(UTC+00:00)
Language:

COSMOS 2251 DEB - Orbit

View from above orbital plane
View from above orbital plane
View from above satellite
View from above satellite

Ground track
Ground track

The orbit data is extracted from the following two-line orbital elements,

1 40792U 93036BVV 21166.06177995  .00000412  00000-0  11542-3 0  9996
2 40792  74.0531 274.0526 0025602  69.1809 102.6474 14.49006111393026
Epoch (UTC): 15 June 2021 01:28:57
Eccentricity: 0.0025602
inclination: 74.0531°
perigee height: 711 km
apogee height: 747 km
right ascension of ascending node: 274.0526°
argument of perigee: 69.1809°
revolutions per day: 14.49006111
mean anomaly at epoch: 102.6474°
orbit number at epoch: 39302

The dashed part of the orbit path shows where the satellite is in the earth's shadow,  

DLR